[[{"header":{"parameterUnit":"m.s-1","parameterCategory":2,"la1":30.2991,"la2":30.254,"lo1":-89.0895,"lo2":-89.0444,"dy":0.0017,"dx":0.0017,"nx":28,"ny":28,"refTime":"2024-09-02T21:00:00:Z","depth":"0","parameterNumber":2,"parameterNumberName":"U-component_of_CURRENTS"},"data":[0,0,0,0,0,0,0,0,0,0,0,0,0,0,0,0,0,0,0,0,0,0,0,0,0,0,0,0,0,0,0,0,0,0,0,0,0,0,0,0,0,0,0,0,0,0,0,0,0,0,0,0,0,0,0,0,0,0,-0.2659,-0.2659,0,-0.2618,-0.2617,-0.2617,-0.2647,-0.2649,-0.265,-0.2652,-0.2612,-0.261,-0.2608,0,0,0,0,0,0,0,0,0,0,0,0,0,-0.2647,-0.2648,-0.2659,-0.2659,-0.2659,-0.2618,-0.2617,-0.2617,-0.2647,-0.2649,-0.2651,-0.2653,-0.2613,-0.261,-0.2607,0,0,0,0,0,0,0,0,0,0,0,0,0,-0.2632,-0.2648,-0.2659,-0.267,-0.2671,-0.2618,-0.2617,-0.2616,-0.2647,-0.2649,-0.2651,-0.2653,-0.2614,-0.2611,-0.2607,-0.2539,0,0,-0.2596,-0.2594,0,0,0,0,0,0,0,0,-0.2633,-0.2632,-0.2669,-0.267,-0.267,-0.2642,-0.2599,-0.2591,-0.2646,-0.2654,-0.2652,-0.2655,-0.2622,-0.2618,-0.2602,-0.2537,-0.2535,-0.2595,-0.2593,-0.2592,-0.2591,0,0,0,0,0,0,0,-0.2634,-0.2634,-0.2641,-0.2669,-0.2669,-0.2637,-0.2639,-0.2597,-0.2624,-0.2653,-0.2656,-0.2654,-0.2623,-0.2606,-0.2602,-0.2534,-0.2595,-0.2592,-0.259,-0.2588,-0.2511,-0.2511,0,0,0,0,0,0,-0.2647,-0.2635,-0.2642,-0.264,-0.2659,-0.2636,-0.2638,-0.2647,-0.2625,-0.2624,-0.2652,-0.2655,-0.2611,-0.2606,-0.26,-0.2597,-0.2592,-0.2588,-0.2586,-0.2511,-0.2511,-0.2511,0,0,0,0,0,0,-0.2647,-0.2648,-0.2644,-0.2637,-0.2635,-0.2635,-0.2645,-0.2645,-0.2638,-0.2624,-0.2624,-0.2647,-0.2612,-0.2606,-0.2579,-0.2593,-0.2586,-0.2583,-0.2511,-0.2511,-0.2511,-0.2539,0,0,0,0,0,0,-0.2647,-0.2649,-0.2648,-0.2639,-0.2636,-0.2632,-0.2643,-0.2643,-0.2634,-0.2638,-0.2618,-0.2617,-0.2614,-0.2584,-0.2575,-0.2588,-0.258,-0.2511,-0.2511,-0.2511,-0.2538,-0.254,-0.2542,0,0,0,0,0,-0.2647,-0.2641,-0.2648,-0.2649,-0.264,-0.2632,-0.2627,-0.2632,-0.2632,-0.2633,-0.2618,-0.2618,-0.2581,-0.258,-0.257,-0.2582,-0.251,-0.2511,-0.2511,-0.2537,-0.2539,-0.2542,0,0,0,0,0,0,-0.2632,-0.2644,-0.2652,-0.265,-0.265,-0.2639,-0.2626,-0.2626,-0.261,-0.2612,-0.2599,-0.2596,-0.2587,-0.2569,-0.2568,-0.2562,-0.2553,-0.2551,-0.2576,-0.2578,-0.258,-0.2596,-0.2577,0,0,0,0,0,-0.2628,-0.2627,-0.2639,-0.2632,-0.2634,-0.2626,-0.2616,-0.2626,-0.2614,-0.2609,-0.2594,-0.2581,-0.2573,-0.2565,-0.2552,-0.2523,-0.2524,-0.2531,-0.2533,-0.2535,-0.2541,-0.2553,-0.2558,-0.2513,-0.2513,-0.2513,0,0,-0.2611,-0.2622,-0.2616,-0.2628,-0.2621,-0.2626,-0.2626,-0.262,-0.2626,-0.2603,-0.259,-0.258,-0.2567,-0.256,-0.2554,-0.2549,-0.2547,-0.2535,-0.2537,-0.2543,-0.2554,-0.2559,-0.2563,-0.2513,-0.2513,-0.2513,0,0,-0.2592,-0.2597,-0.2599,-0.2604,-0.2612,-0.2612,-0.2614,-0.2609,-0.2614,-0.2593,-0.2597,-0.2591,-0.2554,-0.2566,-0.2563,-0.2559,-0.2559,-0.2559,-0.2577,-0.2589,-0.2593,-0.2596,-0.2599,-0.2602,-0.2559,-0.2559,-0.2559,0,-0.2571,-0.2593,-0.2594,-0.2606,-0.2612,-0.2611,-0.2622,-0.2617,-0.2604,-0.2614,-0.2599,-0.2581,-0.2563,-0.2579,-0.2585,-0.2566,-0.2569,-0.2569,-0.2593,-0.2596,-0.26,-0.2601,-0.2605,-0.256,-0.256,-0.256,-0.256,0,-0.2575,-0.2585,-0.2583,-0.2608,-0.2609,-0.2614,-0.2625,-0.2625,-0.262,-0.2626,-0.2634,-0.2607,-0.2607,-0.2602,-0.2585,-0.2609,-0.2602,-0.2596,-0.2589,-0.2606,-0.2606,-0.2609,-0.2562,-0.2562,-0.2561,-0.2561,0,0,-0.2545,-0.2582,-0.2582,-0.2598,-0.2618,-0.2619,-0.2632,-0.2657,-0.2678,-0.266,-0.2686,-0.2663,-0.266,-0.2656,-0.2643,-0.2645,-0.2659,-0.2628,-0.2628,-0.2635,-0.2682,-0.2597,-0.2592,-0.266,-0.2661,-0.2661,-0.2671,0,-0.2551,-0.2586,-0.2602,-0.2616,-0.2632,-0.2645,-0.266,-0.2679,-0.2692,-0.2712,-0.2707,-0.2715,-0.2679,-0.268,-0.2678,-0.2669,-0.267,-0.2657,-0.266,-0.266,-0.2587,-0.2594,-0.2509,-0.2504,-0.2675,-0.2675,-0.2675,0,-0.2554,-0.2585,-0.2616,-0.2643,-0.2651,-0.2655,-0.2695,-0.2708,-0.2748,-0.2762,-0.2779,-0.2777,-0.278,-0.2742,-0.2735,-0.273,-0.2708,-0.2693,-0.2693,-0.2608,-0.2581,-0.2515,-0.2503,-0.2462,-0.2681,-0.268,-0.268,0,-0.2544,-0.2581,-0.2612,-0.2622,-0.266,-0.267,-0.2681,-0.2723,-0.2761,-0.2795,-0.2831,-0.2831,-0.2838,-0.2812,-0.2766,-0.2759,-0.2756,-0.2745,-0.2651,-0.2645,-0.2569,-0.2554,-0.2521,-0.2745,-0.2745,-0.2745,-0.2745,0,-0.2549,-0.2562,-0.2606,-0.2621,-0.2656,-0.2666,-0.2713,-0.273,-0.2787,-0.2836,-0.285,-0.2879,-0.2857,-0.285,-0.2797,-0.2725,-0.2779,-0.2655,-0.2642,-0.2573,-0.2559,-0.2516,-0.2529,-0.2745,-0.2745,-0.2745,-0.2745,0,-0.2533,-0.2561,-0.2594,-0.264,-0.2651,-0.267,-0.2731,-0.2767,-0.2817,-0.2882,-0.2895,-0.2933,-0.2892,-0.2858,-0.2818,-0.2763,-0.2651,-0.2666,-0.2577,-0.2551,-0.2398,-0.2417,-0.2374,-0.2319,-0.2563,-0.2561,-0.2559,0,-0.2533,-0.2549,-0.2609,-0.2626,-0.2644,-0.2684,-0.2715,-0.2772,-0.2816,-0.29,-0.2922,-0.2925,-0.2886,-0.2797,-0.2701,-0.2597,-0.2569,-0.247,-0.2429,-0.2374,-0.2387,-0.2391,-0.2349,-0.2347,-0.2344,-0.2341,-0.2339,0,-0.2524,-0.2542,-0.2573,-0.2624,-0.2648,-0.2705,-0.2743,-0.2781,-0.2845,-0.2885,-0.2895,-0.2867,-0.2793,-0.2634,-0.2515,-0.2441,-0.2402,-0.2408,-0.2386,-0.2238,-0.221,-0.2155,-0.236,-0.2315,-0.2317,-0.2319,-0.232,-0.2321,-0.2497,-0.252,-0.2551,-0.2589,-0.264,-0.2675,-0.2654,-0.2702,-0.2728,-0.2698,-0.2776,-0.2674,-0.2576,-0.2375,-0.2303,-0.2155,-0.2216,-0.2085,-0.2121,-0.2137,-0.205,-0.2185,-0.2099,-0.21,-0.2101,-0.2102,-0.2103,0,-0.2435,-0.246,-0.2504,-0.254,-0.2566,-0.2608,-0.2631,-0.2559,-0.2504,-0.2506,-0.2459,-0.2372,-0.2211,-0.2125,-0.2004,-0.1912,-0.1874,-0.1857,-0.1862,-0.1839,-0.1981,-0.1934,-0.1765,-0.1766,-0.1766,-0.1766,-0.1766,-0.1766,-0.2392,-0.2392,-0.2422,-0.2431,-0.2457,-0.2392,-0.2354,-0.2255,-0.2196,-0.2046,-0.1998,-0.2026,-0.1988,-0.2035,-0.1879,-0.178,-0.1736,-0.1681,-0.1702,-0.1823,-0.1848,-0.1872,-0.1828,-0.164,-0.164,-0.1499,-0.1498,-0.1498]},{"header":{"parameterUnit":"m.s-1","parameterCategory":2,"la1":30.2991,"la2":30.254,"lo1":-89.0895,"lo2":-89.0444,"dy":0.0017,"dx":0.0017,"nx":28,"ny":28,"refTime":"2024-09-02T21:00:00:Z","depth":"0","parameterNumber":3,"parameterNumberName":"V-component_of_CURRENTS"},"data":[0,0,0,0,0,0,0,0,0,0,0,0,0,0,0,0,0,0,0,0,0,0,0,0,0,0,0,0,0,0,0,0,0,0,0,0,0,0,0,0,0,0,0,0,0,0,0,0,0,0,0,0,0,0,0,0,0,0,-0.0884,-0.0883,0,-0.0733,-0.0732,-0.073,-0.067,-0.067,-0.0671,-0.0671,-0.0534,-0.053,-0.0526,0,0,0,0,0,0,0,0,0,0,0,0,0,-0.1025,-0.1024,-0.0884,-0.0882,-0.0881,-0.0734,-0.0731,-0.0729,-0.067,-0.067,-0.0671,-0.0671,-0.0536,-0.0531,-0.0526,0,0,0,0,0,0,0,0,0,0,0,0,0,-0.0928,-0.1023,-0.0884,-0.0834,-0.0828,-0.0734,-0.0731,-0.0729,-0.067,-0.067,-0.0671,-0.0672,-0.0537,-0.0531,-0.0525,-0.0473,0,0,-0.0506,-0.0504,0,0,0,0,0,0,0,0,-0.0933,-0.0922,-0.0843,-0.0837,-0.083,-0.0722,-0.0731,-0.0644,-0.0669,-0.0729,-0.0671,-0.0672,-0.0598,-0.0587,-0.0556,-0.0467,-0.0461,-0.0506,-0.0502,-0.05,-0.0498,0,0,0,0,0,0,0,-0.094,-0.0928,-0.0823,-0.0841,-0.0833,-0.0786,-0.0774,-0.0714,-0.0661,-0.0724,-0.0719,-0.0704,-0.0595,-0.0562,-0.0552,-0.0459,-0.0506,-0.0501,-0.0497,-0.0494,-0.0326,-0.0326,0,0,0,0,0,0,-0.0965,-0.0935,-0.0828,-0.0819,-0.0886,-0.0784,-0.077,-0.0755,-0.0661,-0.0648,-0.0703,-0.0701,-0.0572,-0.0559,-0.0547,-0.0484,-0.05,-0.0494,-0.049,-0.0327,-0.0326,-0.0325,0,0,0,0,0,0,-0.0968,-0.0957,-0.0834,-0.0874,-0.0856,-0.0781,-0.0765,-0.0752,-0.072,-0.0646,-0.0632,-0.0685,-0.0572,-0.0556,-0.0489,-0.0479,-0.0491,-0.0485,-0.0328,-0.0327,-0.0326,-0.0356,0,0,0,0,0,0,-0.0973,-0.0959,-0.0948,-0.0876,-0.0854,-0.0781,-0.0764,-0.0749,-0.0709,-0.0706,-0.0625,-0.0613,-0.0571,-0.0498,-0.0483,-0.047,-0.0481,-0.0329,-0.0328,-0.0326,-0.0356,-0.0356,-0.0356,0,0,0,0,0,-0.0979,-0.0958,-0.0949,-0.0935,-0.0845,-0.0781,-0.0765,-0.0714,-0.0708,-0.0689,-0.0634,-0.0616,-0.0479,-0.0492,-0.0474,-0.046,-0.033,-0.0328,-0.0326,-0.0356,-0.0356,-0.0356,0,0,0,0,0,0,-0.1001,-0.0948,-0.0937,-0.0898,-0.0849,-0.0771,-0.0739,-0.0715,-0.0655,-0.0652,-0.0594,-0.0576,-0.0518,-0.0481,-0.0498,-0.0408,-0.0405,-0.04,-0.0434,-0.0433,-0.0433,-0.0457,-0.0476,0,0,0,0,0,-0.1006,-0.0989,-0.0926,-0.0899,-0.0872,-0.081,-0.0776,-0.0747,-0.0687,-0.0661,-0.0609,-0.0552,-0.0494,-0.046,-0.0405,-0.0346,-0.0311,-0.0329,-0.0329,-0.033,-0.0336,-0.0269,-0.0264,-0.032,-0.032,-0.032,0,0,-0.1011,-0.0978,-0.0968,-0.0904,-0.0859,-0.0823,-0.079,-0.0741,-0.0719,-0.0655,-0.0604,-0.0547,-0.0478,-0.0417,-0.0388,-0.0386,-0.0294,-0.0327,-0.0328,-0.0335,-0.0267,-0.0262,-0.0257,-0.0318,-0.0319,-0.0319,0,0,-0.1012,-0.0978,-0.0964,-0.0923,-0.0863,-0.0826,-0.0819,-0.0746,-0.0719,-0.0661,-0.0613,-0.0548,-0.0465,-0.0407,-0.0369,-0.0333,-0.0298,-0.0323,-0.0336,-0.0271,-0.0266,-0.0261,-0.0206,-0.0197,-0.0322,-0.0322,-0.0322,0,-0.1021,-0.0994,-0.0948,-0.0918,-0.089,-0.0836,-0.0815,-0.0771,-0.0692,-0.0667,-0.0655,-0.0517,-0.0459,-0.0376,-0.0366,-0.0333,-0.0298,-0.0343,-0.0272,-0.0267,-0.0261,-0.0206,-0.0195,-0.0323,-0.0323,-0.0323,-0.0322,0,-0.1018,-0.0986,-0.0967,-0.0928,-0.0892,-0.0859,-0.0805,-0.0772,-0.0741,-0.0696,-0.0616,-0.0524,-0.0446,-0.0415,-0.0378,-0.0309,-0.0297,-0.0283,-0.0277,-0.0258,-0.02,-0.0188,-0.0325,-0.0324,-0.0324,-0.0323,0,0,-0.1062,-0.0987,-0.0979,-0.0966,-0.0897,-0.0873,-0.0836,-0.0784,-0.0763,-0.0684,-0.0638,-0.0528,-0.0481,-0.0435,-0.037,-0.0311,-0.0237,-0.0289,-0.0285,-0.0244,-0.0101,-0.0069,-0.0052,-0.0214,-0.0212,-0.0211,-0.0075,0,-0.1075,-0.1046,-0.0997,-0.097,-0.095,-0.0892,-0.0868,-0.0817,-0.0762,-0.0702,-0.0603,-0.0534,-0.0487,-0.0446,-0.0375,-0.0268,-0.0208,-0.0276,-0.0118,-0.0113,-0.0094,-0.0038,-0.0026,0.0098,-0.0063,-0.0061,-0.0059,0,-0.1086,-0.1069,-0.1052,-0.1005,-0.0991,-0.0972,-0.0931,-0.0896,-0.08,-0.0755,-0.0661,-0.0581,-0.0462,-0.0438,-0.0249,-0.0297,-0.0209,-0.0132,-0.0125,-0.0079,-0.0058,0.0054,0.0126,0.0237,-0.004,-0.0042,-0.0043,0,-0.1156,-0.1101,-0.1101,-0.1082,-0.1024,-0.1015,-0.0992,-0.0917,-0.0892,-0.0784,-0.0737,-0.0595,-0.0502,-0.0381,-0.0207,-0.0232,-0.0005,-0.0015,0.0097,0.01,0.015,0.0154,0.034,0.0103,0.0103,0.0102,0.0102,0,-0.1188,-0.1179,-0.1138,-0.1134,-0.1154,-0.1083,-0.1079,-0.1034,-0.0951,-0.09,-0.0769,-0.0677,-0.0484,-0.0324,-0.0204,0.0003,0.0007,0.0109,0.0146,0.014,0.0142,0.0271,0.0321,0.0107,0.0106,0.0105,0.0104,0,-0.1252,-0.1213,-0.1218,-0.1185,-0.1182,-0.1202,-0.1162,-0.115,-0.1054,-0.0975,-0.0941,-0.0724,-0.0505,-0.0309,-0.0076,0.0029,0.029,0.0265,0.0243,0.0275,0.0449,0.0495,0.0741,0.0833,0.0396,0.0398,0.0399,0,-0.128,-0.1289,-0.129,-0.1317,-0.1304,-0.1314,-0.1318,-0.1231,-0.1195,-0.0992,-0.0949,-0.0708,-0.0524,-0.0159,0.0065,0.0295,0.0398,0.0436,0.0389,0.048,0.056,0.0602,0.0663,0.0448,0.045,0.0451,0.0452,0,-0.1349,-0.135,-0.1364,-0.1436,-0.1454,-0.1461,-0.1439,-0.1418,-0.1276,-0.1166,-0.0956,-0.079,-0.0408,-0.0107,0.0203,0.0338,0.0533,0.047,0.0586,0.0639,0.0679,0.0777,0.0327,0.0465,0.0464,0.0463,0.0462,0.0462,-0.1405,-0.1452,-0.1486,-0.1557,-0.1586,-0.1587,-0.1568,-0.1493,-0.14,-0.119,-0.1009,-0.0728,-0.0281,0.0167,0.0335,0.0669,0.0655,0.0739,0.0795,0.0834,0.0908,0.0479,0.0641,0.0641,0.0641,0.064,0.064,0,-0.146,-0.1523,-0.1607,-0.1663,-0.1713,-0.1693,-0.1633,-0.1563,-0.1426,-0.1225,-0.1012,-0.0504,-0.0078,0.0329,0.0818,0.0982,0.1027,0.1065,0.1124,0.1178,0.0818,0.0802,0.0982,0.0981,0.0981,0.0981,0.0981,0.0981,-0.1489,-0.1583,-0.164,-0.1761,-0.1795,-0.1774,-0.1721,-0.1587,-0.1428,-0.1086,-0.0787,-0.0564,0.0056,0.0857,0.1303,0.1327,0.1481,0.1454,0.1562,0.1285,0.1258,0.1232,0.123,0.1496,0.1497,0.19,0.1903,0.1906]}],[{"header":{"parameterUnit":"m.s-1","parameterCategory":2,"la1":30.2991,"la2":30.254,"lo1":-89.0895,"lo2":-89.0444,"dy":0.0017,"dx":0.0017,"nx":28,"ny":28,"refTime":"2024-09-02T21:00:00:Z","depth":"2","parameterNumber":2,"parameterNumberName":"U-component_of_CURRENTS"},"data":[0,0,0,0,0,0,0,0,0,0,0,0,0,0,0,0,0,0,0,0,0,0,0,0,0,0,0,0,0,0,0,0,0,0,0,0,0,0,0,0,0,0,0,0,0,0,0,0,0,0,0,0,0,0,0,0,0,0,-0.2344,-0.2345,0,-0.2392,-0.2393,-0.2393,-0.2468,-0.247,-0.2471,-0.2472,-0.2465,-0.2464,-0.2463,0,0,0,0,0,0,0,0,0,0,0,0,0,-0.2316,-0.2316,-0.2344,-0.2345,-0.2345,-0.2392,-0.2393,-0.2394,-0.2468,-0.247,-0.2471,-0.2473,-0.2466,-0.2464,-0.2462,0,0,0,0,0,0,0,0,0,0,0,0,0,-0.2343,-0.2316,-0.2344,-0.2388,-0.2393,-0.2392,-0.2393,-0.2394,-0.2468,-0.247,-0.2472,-0.2474,-0.2466,-0.2464,-0.2462,-0.2408,0,0,-0.2456,-0.2455,0,0,0,0,0,0,0,0,-0.2341,-0.2344,-0.2381,-0.2385,-0.239,-0.2426,-0.2381,-0.2396,-0.2467,-0.2439,-0.2472,-0.2475,-0.2446,-0.2445,-0.2451,-0.2408,-0.2408,-0.2455,-0.2454,-0.2453,-0.2452,0,0,0,0,0,0,0,-0.2339,-0.2342,-0.2363,-0.2382,-0.2387,-0.2405,-0.2411,-0.2384,-0.2429,-0.2442,-0.2447,-0.2452,-0.2448,-0.2453,-0.2451,-0.2407,-0.2455,-0.2453,-0.2452,-0.2451,-0.2412,-0.2412,0,0,0,0,0,0,-0.2331,-0.234,-0.2362,-0.2365,-0.237,-0.2404,-0.2411,-0.2413,-0.2431,-0.2436,-0.245,-0.2455,-0.2455,-0.2453,-0.2451,-0.2468,-0.2453,-0.2451,-0.245,-0.2412,-0.2412,-0.2412,0,0,0,0,0,0,-0.233,-0.2332,-0.236,-0.2354,-0.2359,-0.2403,-0.2404,-0.2413,-0.2438,-0.2438,-0.2443,-0.247,-0.2457,-0.2454,-0.2453,-0.2465,-0.245,-0.2448,-0.2412,-0.2412,-0.2412,-0.2449,0,0,0,0,0,0,-0.2329,-0.2331,-0.2334,-0.2353,-0.2359,-0.2387,-0.2402,-0.2412,-0.2437,-0.2444,-0.2455,-0.2456,-0.2458,-0.2456,-0.2451,-0.2462,-0.2446,-0.2411,-0.2412,-0.2412,-0.2448,-0.2451,-0.2454,0,0,0,0,0,-0.2328,-0.2325,-0.2334,-0.2337,-0.2359,-0.2388,-0.2394,-0.2431,-0.2436,-0.2458,-0.2461,-0.2457,-0.2456,-0.2454,-0.2448,-0.2458,-0.2411,-0.2412,-0.2412,-0.2446,-0.245,-0.2454,0,0,0,0,0,0,-0.2316,-0.2333,-0.2343,-0.2346,-0.2377,-0.2402,-0.2411,-0.2431,-0.2449,-0.2448,-0.2451,-0.2452,-0.2459,-0.2446,-0.2444,-0.2449,-0.2435,-0.2434,-0.2463,-0.2467,-0.247,-0.2487,-0.2445,0,0,0,0,0,-0.231,-0.2314,-0.234,-0.2345,-0.2353,-0.2379,-0.2393,-0.2419,-0.2434,-0.2446,-0.2448,-0.2446,-0.245,-0.245,-0.2446,-0.2435,-0.2434,-0.244,-0.2443,-0.2445,-0.2455,-0.2469,-0.2474,-0.2414,-0.2414,-0.2414,0,0,-0.2301,-0.2315,-0.2314,-0.2343,-0.2357,-0.2383,-0.2394,-0.2416,-0.2445,-0.2434,-0.2456,-0.2451,-0.2449,-0.2456,-0.2457,-0.245,-0.246,-0.2446,-0.2448,-0.2457,-0.247,-0.2476,-0.2482,-0.2415,-0.2415,-0.2415,0,0,-0.2297,-0.2299,-0.2308,-0.2331,-0.2362,-0.2383,-0.2392,-0.2418,-0.244,-0.2452,-0.246,-0.2467,-0.2455,-0.2473,-0.2476,-0.2485,-0.2476,-0.2478,-0.2505,-0.2518,-0.2524,-0.2528,-0.2529,-0.2533,-0.2479,-0.2479,-0.2479,0,-0.2282,-0.231,-0.2318,-0.2341,-0.2365,-0.2385,-0.2416,-0.2433,-0.246,-0.2478,-0.2467,-0.2477,-0.247,-0.25,-0.251,-0.2494,-0.2493,-0.2493,-0.2524,-0.2528,-0.2533,-0.2532,-0.2536,-0.2481,-0.2481,-0.248,-0.248,0,-0.2306,-0.2323,-0.2326,-0.2366,-0.2394,-0.2418,-0.2448,-0.247,-0.2482,-0.2505,-0.2528,-0.2517,-0.2532,-0.2527,-0.252,-0.255,-0.2537,-0.2527,-0.2518,-0.2541,-0.2538,-0.2542,-0.2483,-0.2483,-0.2482,-0.2482,0,0,-0.2257,-0.2331,-0.2327,-0.2362,-0.2412,-0.2437,-0.2476,-0.2529,-0.2563,-0.2565,-0.2608,-0.2603,-0.2596,-0.2599,-0.2588,-0.2594,-0.2616,-0.2573,-0.2573,-0.258,-0.2638,-0.2518,-0.2511,-0.2613,-0.2614,-0.2615,-0.2622,0,-0.2271,-0.2325,-0.2369,-0.242,-0.2443,-0.2488,-0.2528,-0.2573,-0.2605,-0.2643,-0.2639,-0.2661,-0.2625,-0.2629,-0.2632,-0.2624,-0.263,-0.2615,-0.261,-0.2609,-0.2505,-0.2513,-0.2346,-0.2329,-0.2625,-0.2626,-0.2627,0,-0.2264,-0.231,-0.2366,-0.2452,-0.2468,-0.2515,-0.2592,-0.2631,-0.2687,-0.2708,-0.2731,-0.273,-0.2741,-0.2702,-0.27,-0.2691,-0.267,-0.2655,-0.2655,-0.2535,-0.2497,-0.2354,-0.2325,-0.2633,-0.2633,-0.2632,-0.2632,0,-0.2212,-0.2298,-0.2351,-0.2377,-0.2474,-0.2523,-0.2581,-0.2649,-0.2701,-0.2751,-0.2788,-0.2795,-0.2798,-0.2779,-0.272,-0.2725,-0.2703,-0.271,-0.2586,-0.2577,-0.243,-0.2405,-0.2717,-0.2717,-0.2717,-0.2717,-0.2717,0,-0.2192,-0.2221,-0.2336,-0.2361,-0.2453,-0.2505,-0.2602,-0.2659,-0.2735,-0.2788,-0.2814,-0.2831,-0.2818,-0.2794,-0.2747,-0.2654,-0.2722,-0.2591,-0.2571,-0.2434,-0.2411,-0.2672,-0.2667,-0.2717,-0.2717,-0.2717,-0.2717,0,-0.2109,-0.2175,-0.2252,-0.238,-0.243,-0.2491,-0.2648,-0.2699,-0.2765,-0.2835,-0.285,-0.2878,-0.2812,-0.2772,-0.2728,-0.2676,-0.2609,-0.256,-0.2385,-0.2343,-0.2479,-0.2476,-0.2457,-0.2453,-0.2449,-0.2446,-0.2444,0,-0.2088,-0.2096,-0.2267,-0.2339,-0.2412,-0.252,-0.2592,-0.2703,-0.2759,-0.2836,-0.2854,-0.283,-0.2741,-0.2625,-0.2531,-0.242,-0.2488,-0.2229,-0.2207,-0.2469,-0.2453,-0.2455,-0.2456,-0.2034,-0.2028,-0.2024,-0.202,0,-0.2037,-0.2085,-0.2174,-0.2311,-0.2421,-0.2532,-0.2642,-0.2672,-0.2755,-0.2763,-0.2703,-0.2627,-0.2545,-0.2323,-0.2217,-0.214,-0.2231,-0.2131,-0.2455,-0.2112,-0.2067,-0.2052,-0.2068,-0.1979,-0.1983,-0.1986,-0.1988,-0.199,-0.2017,-0.2064,-0.2167,-0.2284,-0.2405,-0.246,-0.2458,-0.2505,-0.2486,-0.2405,-0.2475,-0.2295,-0.2266,-0.198,-0.1861,-0.1803,-0.1958,-0.189,-0.1906,-0.1927,-0.1863,-0.1813,-0.1666,-0.1668,-0.167,-0.1671,-0.1673,0,-0.1981,-0.2011,-0.2121,-0.2233,-0.2257,-0.237,-0.2417,-0.2298,-0.2125,-0.2147,-0.2021,-0.1791,-0.1649,-0.163,-0.1489,-0.1459,-0.1471,-0.1389,-0.1416,-0.1457,-0.1494,-0.141,-0.1091,-0.1089,-0.1088,-0.1086,0,0,-0.1957,-0.1982,-0.2011,-0.2017,-0.207,-0.2011,-0.1964,-0.1799,-0.1743,-0.1533,-0.1474,-0.1566,-0.1604,-0.1353,-0.1287,-0.1172,-0.1303,-0.1113,-0.1583,-0.1657,-0.1692,-0.1785,-0.1702,0,0,0,0,0]},{"header":{"parameterUnit":"m.s-1","parameterCategory":2,"la1":30.2991,"la2":30.254,"lo1":-89.0895,"lo2":-89.0444,"dy":0.0017,"dx":0.0017,"nx":28,"ny":28,"refTime":"2024-09-02T21:00:00:Z","depth":"2","parameterNumber":3,"parameterNumberName":"V-component_of_CURRENTS"},"data":[0,0,0,0,0,0,0,0,0,0,0,0,0,0,0,0,0,0,0,0,0,0,0,0,0,0,0,0,0,0,0,0,0,0,0,0,0,0,0,0,0,0,0,0,0,0,0,0,0,0,0,0,0,0,0,0,0,0,-0.0235,-0.0233,0,-0.012,-0.0119,-0.0118,-0.0114,-0.0115,-0.0116,-0.0117,-0.0039,-0.0036,-0.0033,0,0,0,0,0,0,0,0,0,0,0,0,0,-0.0333,-0.0333,-0.0235,-0.0233,-0.0231,-0.012,-0.0119,-0.0118,-0.0114,-0.0115,-0.0117,-0.0118,-0.004,-0.0037,-0.0033,0,0,0,0,0,0,0,0,0,0,0,0,0,-0.0266,-0.0332,-0.0235,-0.0213,-0.021,-0.0121,-0.0119,-0.0118,-0.0114,-0.0115,-0.0117,-0.0119,-0.0042,-0.0037,-0.0033,0.0028,0,0,-0.0019,-0.0017,0,0,0,0,0,0,0,0,-0.027,-0.0263,-0.0218,-0.0215,-0.0211,-0.013,-0.0125,-0.007,-0.0113,-0.0154,-0.0117,-0.0119,-0.007,-0.0063,-0.0042,0.0031,0.0035,-0.0018,-0.0015,-0.0013,-0.0012,0,0,0,0,0,0,0,-0.0274,-0.0267,-0.0193,-0.0216,-0.0212,-0.0169,-0.0163,-0.0114,-0.0108,-0.0151,-0.0149,-0.013,-0.0069,-0.0047,-0.004,0.0036,-0.0018,-0.0014,-0.0011,-0.001,0.0085,0.0084,0,0,0,0,0,0,-0.0285,-0.0272,-0.0197,-0.0189,-0.0241,-0.0166,-0.0159,-0.0157,-0.0107,-0.01,-0.0129,-0.013,-0.0054,-0.0046,-0.0038,-0.0038,-0.0013,-0.0009,-0.0007,0.0085,0.0085,0.0084,0,0,0,0,0,0,-0.0288,-0.0281,-0.0201,-0.0224,-0.021,-0.0163,-0.0161,-0.0154,-0.0165,-0.009,-0.0085,-0.0151,-0.0055,-0.0044,-0.0029,-0.0033,-0.0007,-0.0003,0.0085,0.0085,0.0084,0.0009,0,0,0,0,0,0,-0.0292,-0.0283,-0.03,-0.0225,-0.0209,-0.0182,-0.0159,-0.0151,-0.0147,-0.0149,-0.0106,-0.0098,-0.0055,-0.0036,-0.0024,-0.0026,0.0001,0.0086,0.0085,0.0085,0.0012,0.0006,0.0001,0,0,0,0,0,-0.0296,-0.0311,-0.0302,-0.0293,-0.023,-0.0182,-0.0172,-0.0144,-0.0147,-0.016,-0.0132,-0.0101,-0.0031,-0.0033,-0.0019,-0.0019,0.0086,0.0085,0.0085,0.0014,0.0007,0.0001,0,0,0,0,0,0,-0.037,-0.0309,-0.0298,-0.0298,-0.0258,-0.0181,-0.0173,-0.0164,-0.0149,-0.0147,-0.0103,-0.0093,-0.0078,-0.004,-0.0044,0.0007,0.0033,0.0035,-0.0025,-0.0031,-0.0036,-0.0047,0.0005,0,0,0,0,0,-0.039,-0.0381,-0.0322,-0.0321,-0.0299,-0.0245,-0.0227,-0.0204,-0.0167,-0.0164,-0.0129,-0.009,-0.006,-0.0045,-0.0002,0.0025,0.0071,0.0034,0.0028,0.0024,0.0024,0.0089,0.0089,0.0082,0.0082,0.0082,0,0,-0.0404,-0.0379,-0.0368,-0.0335,-0.0291,-0.0271,-0.024,-0.0208,-0.0208,-0.0153,-0.0146,-0.0106,-0.0058,-0.0029,-0.0018,-0.0005,0.0048,0.0023,0.0018,0.0022,0.0088,0.0089,0.009,0.0082,0.0082,0.0082,0,0,-0.0425,-0.0416,-0.0411,-0.0382,-0.033,-0.0299,-0.0305,-0.024,-0.0235,-0.0218,-0.0177,-0.0147,-0.01,-0.0057,-0.0035,-0.0042,0.0018,-0.0033,-0.0065,-0.0004,-0.0002,-0.0001,0.005,0.0057,-0.0035,-0.0035,-0.0035,0,-0.0457,-0.0446,-0.0404,-0.0392,-0.0378,-0.0324,-0.0324,-0.0298,-0.0245,-0.0239,-0.0233,-0.0148,-0.0111,-0.0071,-0.0079,-0.0053,-0.0014,-0.0049,-0.0011,-0.0008,-0.0005,0.0047,0.0055,-0.0039,-0.0038,-0.0038,-0.0038,0,-0.0472,-0.046,-0.0449,-0.0426,-0.0416,-0.0395,-0.0356,-0.0344,-0.0334,-0.0304,-0.027,-0.0203,-0.0155,-0.0138,-0.0116,-0.0073,-0.0051,-0.0026,0.0003,-0.0009,0.0046,0.0057,-0.0044,-0.0043,-0.0042,-0.0041,0,0,-0.0532,-0.0477,-0.0469,-0.0472,-0.0434,-0.0429,-0.0422,-0.0405,-0.0407,-0.0352,-0.034,-0.0281,-0.0232,-0.0202,-0.0148,-0.0099,-0.0051,-0.0065,-0.006,-0.002,0.0079,0.0076,0.0088,-0.0021,-0.002,-0.0018,0.0105,0,-0.0557,-0.0543,-0.0524,-0.0531,-0.0516,-0.049,-0.0499,-0.0478,-0.0451,-0.0418,-0.034,-0.0305,-0.0261,-0.0234,-0.0175,-0.0073,-0.0026,-0.0087,0.0089,0.0094,0.009,0.0099,0.0078,0.0185,0.0115,0.0117,0.0119,0,-0.0581,-0.0563,-0.057,-0.0576,-0.0576,-0.0598,-0.0607,-0.0606,-0.0543,-0.0518,-0.0447,-0.0374,-0.028,-0.0246,-0.0076,-0.0118,-0.0034,0.0042,0.0049,0.0082,0.0111,0.0189,0.0207,0.0136,0.0135,0.0134,0.0132,0,-0.0627,-0.0611,-0.063,-0.0623,-0.0615,-0.0648,-0.0666,-0.0636,-0.0646,-0.0567,-0.0534,-0.0415,-0.0332,-0.0213,-0.0052,-0.0064,0.0136,0.0146,0.0224,0.0225,0.0261,0.0262,0.0253,0.0253,0.0253,0.0252,0.0252,0,-0.0664,-0.0671,-0.0656,-0.0659,-0.0725,-0.0703,-0.0773,-0.0755,-0.0719,-0.071,-0.0583,-0.0513,-0.0319,-0.0174,-0.0055,0.0125,0.0143,0.0224,0.026,0.0232,0.0229,0.023,0.0226,0.0257,0.0256,0.0255,0.0254,0,-0.0703,-0.0679,-0.0714,-0.0726,-0.0744,-0.0802,-0.0869,-0.0902,-0.0833,-0.0799,-0.0771,-0.0575,-0.0379,-0.0189,0.0032,0.0132,0.0288,0.034,0.0287,0.0314,0.0333,0.0323,0.0439,0.044,0.0441,0.0441,0.0442,0,-0.0726,-0.0729,-0.078,-0.0845,-0.0868,-0.0941,-0.0996,-0.0975,-0.0984,-0.0831,-0.08,-0.0589,-0.0439,-0.0108,0.0106,0.0319,0.0327,0.0417,0.0385,0.033,0.0354,0.0343,0.0332,0.0407,0.0408,0.0408,0.0408,0,-0.0778,-0.08,-0.0836,-0.0955,-0.1045,-0.1117,-0.1165,-0.1165,-0.1096,-0.1018,-0.0854,-0.0717,-0.0379,-0.0118,0.0166,0.0289,0.0377,0.0426,0.0418,0.0346,0.0306,0.0327,0.0317,0.041,0.041,0.041,0.041,0.041,-0.084,-0.0901,-0.0974,-0.1096,-0.1191,-0.1248,-0.128,-0.1262,-0.1222,-0.1046,-0.092,-0.0677,-0.0409,-0.0,0.0211,0.0419,0.0403,0.0458,0.0456,0.0454,0.0411,0.0372,0.0481,0.0482,0.0482,0.0482,0.0482,0,-0.091,-0.0985,-0.1118,-0.1241,-0.134,-0.1361,-0.1366,-0.1324,-0.1224,-0.1072,-0.0912,-0.0595,-0.0302,-0.0018,0.0299,0.0469,0.0469,0.0508,0.0475,0.0472,0.0469,0.0425,0.0501,0.0502,0.0502,0.0503,0,0,-0.0956,-0.1076,-0.1143,-0.1331,-0.1409,-0.1454,-0.1426,-0.1317,-0.1186,-0.0999,-0.083,-0.0635,-0.0295,-0.0064,0.0171,0.0345,0.036,0.0365,0.033,0.0258,0.0253,0.042,0.0345,0,0,0,0,0]}],[{"header":{"parameterUnit":"m.s-1","parameterCategory":2,"la1":30.2991,"la2":30.254,"lo1":-89.0895,"lo2":-89.0444,"dy":0.0017,"dx":0.0017,"nx":28,"ny":28,"refTime":"2024-09-02T21:00:00:Z","depth":"4","parameterNumber":2,"parameterNumberName":"U-component_of_CURRENTS"},"data":[0,0,0,0,0,0,0,0,0,0,0,0,0,0,0,0,0,0,0,0,0,0,0,0,0,0,0,0,0,0,0,0,0,0,0,0,0,0,0,0,0,0,0,0,0,0,0,0,0,0,0,0,0,0,0,0,0,0,-0.0727,-0.0727,0,-0.0783,-0.0784,-0.0786,-0.0806,-0.0805,-0.0804,-0.0804,-0.0911,-0.0915,-0.0919,0,0,0,0,0,0,0,0,0,0,0,0,0,-0.0684,-0.0685,-0.0727,-0.0727,-0.0727,-0.0783,-0.0784,-0.0786,-0.0807,-0.0805,-0.0804,-0.0803,-0.091,-0.0915,-0.0919,0,0,0,0,0,0,0,0,0,0,0,0,0,-0.0726,-0.0686,-0.0728,-0.0737,-0.0738,-0.0782,-0.0784,-0.0786,-0.0807,-0.0805,-0.0804,-0.0802,-0.0909,-0.0914,-0.092,-0.0986,0,0,-0.0937,-0.094,0,0,0,0,0,0,0,0,-0.0724,-0.0729,-0.0736,-0.0737,-0.0738,-0.0778,-0.0808,-0.0852,-0.0807,-0.0791,-0.0803,-0.0802,-0.0867,-0.0876,-0.0902,-0.0991,-0.0995,-0.0938,-0.0941,-0.0944,-0.0945,0,0,0,0,0,0,0,-0.0721,-0.0727,-0.0759,-0.0736,-0.0737,-0.0753,-0.0759,-0.0817,-0.0845,-0.0792,-0.0791,-0.0783,-0.0869,-0.0897,-0.0905,-0.0997,-0.0938,-0.0943,-0.0946,-0.0949,-0.1152,-0.1154,0,0,0,0,0,0,-0.0695,-0.0724,-0.0757,-0.0759,-0.0716,-0.0755,-0.0761,-0.0774,-0.0843,-0.0849,-0.0784,-0.0784,-0.0888,-0.0898,-0.0909,-0.1042,-0.0944,-0.0949,-0.0952,-0.115,-0.1152,-0.1154,0,0,0,0,0,0,-0.0695,-0.0699,-0.0754,-0.0734,-0.0741,-0.0756,-0.0772,-0.0776,-0.0827,-0.0835,-0.0843,-0.0831,-0.0887,-0.0901,-0.0937,-0.1044,-0.0952,-0.0957,-0.1148,-0.1151,-0.1153,-0.1276,0,0,0,0,0,0,-0.0694,-0.0699,-0.0722,-0.0733,-0.0741,-0.0782,-0.0772,-0.0778,-0.0818,-0.0819,-0.0878,-0.0885,-0.0887,-0.0928,-0.0942,-0.105,-0.0961,-0.1145,-0.1149,-0.1152,-0.127,-0.1283,-0.1294,0,0,0,0,0,-0.0692,-0.0714,-0.0723,-0.0727,-0.0766,-0.0782,-0.079,-0.08,-0.0822,-0.0844,-0.0859,-0.0884,-0.0963,-0.0933,-0.095,-0.1062,-0.1143,-0.1148,-0.1152,-0.1264,-0.128,-0.1294,0,0,0,0,0,0,-0.0697,-0.0717,-0.0728,-0.0753,-0.0768,-0.0781,-0.0809,-0.0827,-0.0865,-0.0865,-0.0894,-0.0901,-0.098,-0.0989,-0.0955,-0.1126,-0.1067,-0.1075,-0.1146,-0.1162,-0.1174,-0.116,-0.0966,0,0,0,0,0,-0.0711,-0.0731,-0.075,-0.0764,-0.0788,-0.0815,-0.0834,-0.0831,-0.085,-0.0869,-0.0917,-0.096,-0.1014,-0.1054,-0.1086,-0.1181,-0.1168,-0.1265,-0.1278,-0.1288,-0.1285,-0.1353,-0.1372,-0.1169,-0.1169,-0.1169,0,0,-0.0709,-0.0721,-0.0732,-0.0766,-0.0794,-0.0834,-0.0827,-0.0846,-0.0885,-0.0876,-0.0971,-0.1002,-0.104,-0.1128,-0.1171,-0.1153,-0.1334,-0.1294,-0.1304,-0.1294,-0.136,-0.138,-0.1397,-0.1172,-0.1171,-0.1171,0,0,-0.0701,-0.0745,-0.0765,-0.0784,-0.0806,-0.0845,-0.0862,-0.0905,-0.094,-0.1004,-0.1018,-0.1088,-0.1187,-0.1232,-0.1268,-0.1371,-0.1386,-0.1416,-0.1495,-0.1563,-0.158,-0.1595,-0.1583,-0.1597,-0.1439,-0.1439,-0.1439,0,-0.0697,-0.0728,-0.0769,-0.0788,-0.0809,-0.0864,-0.0893,-0.0952,-0.0995,-0.1037,-0.1037,-0.1196,-0.1238,-0.1356,-0.1396,-0.1408,-0.1416,-0.1443,-0.1581,-0.1596,-0.1609,-0.1593,-0.1607,-0.1446,-0.1445,-0.1444,-0.1444,0,-0.07,-0.0732,-0.0749,-0.0813,-0.0852,-0.0874,-0.0949,-0.1,-0.1073,-0.1144,-0.1264,-0.1311,-0.141,-0.1463,-0.1472,-0.1617,-0.1579,-0.1579,-0.1546,-0.1638,-0.1614,-0.1625,-0.1455,-0.1453,-0.1451,-0.1449,0,0,-0.0658,-0.0739,-0.0741,-0.0781,-0.0858,-0.0893,-0.097,-0.1074,-0.1159,-0.1249,-0.136,-0.149,-0.1554,-0.1595,-0.1641,-0.1712,-0.1825,-0.1708,-0.1708,-0.1699,-0.1931,-0.1774,-0.177,-0.187,-0.1873,-0.1876,-0.1868,0,-0.0649,-0.0685,-0.0738,-0.0811,-0.0854,-0.0919,-0.1029,-0.1119,-0.1212,-0.1344,-0.1439,-0.1596,-0.1605,-0.169,-0.1759,-0.1814,-0.1865,-0.1823,-0.1839,-0.1838,-0.1692,-0.1782,-0.1887,-0.1876,-0.1879,-0.188,-0.1882,0,-0.063,-0.066,-0.0707,-0.0836,-0.0875,-0.0942,-0.1085,-0.1191,-0.1366,-0.1445,-0.1571,-0.1674,-0.1824,-0.1814,-0.1936,-0.1918,-0.1937,-0.1952,-0.1953,-0.1769,-0.1703,-0.177,-0.1902,-0.19,-0.1899,-0.1897,-0.1896,0,-0.0566,-0.0649,-0.0694,-0.0719,-0.0877,-0.092,-0.1051,-0.1216,-0.1325,-0.1536,-0.1628,-0.1796,-0.1882,-0.1967,-0.2001,-0.2012,-0.207,-0.2086,-0.1936,-0.1922,-0.201,-0.1993,-0.2155,-0.2155,-0.2156,-0.2156,-0.2156,0,-0.053,-0.057,-0.0671,-0.0688,-0.079,-0.0931,-0.1071,-0.1196,-0.1394,-0.1494,-0.1723,-0.1766,-0.1935,-0.1978,-0.202,-0.1984,-0.209,-0.1949,-0.1929,-0.2055,-0.2044,-0.2015,-0.1999,-0.2155,-0.2155,-0.2155,-0.2155,0,-0.0461,-0.0516,-0.0574,-0.0711,-0.075,-0.0843,-0.1055,-0.1143,-0.1392,-0.1486,-0.1578,-0.1772,-0.1849,-0.1945,-0.2022,-0.1971,-0.1989,-0.1937,-0.201,-0.1992,-0.179,-0.178,-0.1814,-0.1809,-0.1805,-0.1801,-0.1798,0,-0.0439,-0.045,-0.0547,-0.0565,-0.0622,-0.0761,-0.0829,-0.1084,-0.1129,-0.1412,-0.1398,-0.1594,-0.1673,-0.1702,-0.1795,-0.1869,-0.185,-0.183,-0.1876,-0.1788,-0.1765,-0.1762,-0.1759,-0.1791,-0.179,-0.1789,-0.1788,0,-0.0392,-0.042,-0.0466,-0.0474,-0.0509,-0.0584,-0.0678,-0.0745,-0.0982,-0.1146,-0.1262,-0.1408,-0.1453,-0.157,-0.1629,-0.1666,-0.1854,-0.1785,-0.1796,-0.1839,-0.176,-0.1741,-0.1743,-0.1772,-0.1775,-0.1776,-0.1777,0,-0.0349,-0.0356,-0.0377,-0.0394,-0.0408,-0.0422,-0.0529,-0.0597,-0.0735,-0.1019,-0.0968,-0.1229,-0.1337,-0.1451,-0.1481,-0.1547,-0.1566,-0.1543,-0.1568,-0.1586,-0.1524,-0.1391,-0.1279,0,0,0,0,0,-0.0288,-0.0275,-0.029,-0.0294,-0.0301,-0.0325,-0.0402,-0.0512,-0.0658,-0.069,-0.0882,-0.0944,-0.1134,-0.1253,-0.1291,-0.1376,-0.1552,-0.1408,-0.1532,-0.1688,-0.1705,-0.1659,0,0,0,0,0,0,-0.0243,-0.0241,-0.0253,-0.0185,-0.019,-0.0193,-0.0275,-0.0397,-0.0455,-0.0624,-0.0749,-0.0842,-0.105,-0.1101,-0.1258,-0.1286,-0.1338,-0.1524,-0.1521,-0.1678,-0.1694,-0.1708,-0.1666,0,0,0,0,0]},{"header":{"parameterUnit":"m.s-1","parameterCategory":2,"la1":30.2991,"la2":30.254,"lo1":-89.0895,"lo2":-89.0444,"dy":0.0017,"dx":0.0017,"nx":28,"ny":28,"refTime":"2024-09-02T21:00:00:Z","depth":"4","parameterNumber":3,"parameterNumberName":"V-component_of_CURRENTS"},"data":[0,0,0,0,0,0,0,0,0,0,0,0,0,0,0,0,0,0,0,0,0,0,0,0,0,0,0,0,0,0,0,0,0,0,0,0,0,0,0,0,0,0,0,0,0,0,0,0,0,0,0,0,0,0,0,0,0,0,-0.005,-0.005,0,-0.0025,-0.0024,-0.0023,0.0007,0.0007,0.0007,0.0007,0.0082,0.0084,0.0086,0,0,0,0,0,0,0,0,0,0,0,0,0,-0.0048,-0.0048,-0.005,-0.005,-0.005,-0.0025,-0.0024,-0.0023,0.0007,0.0007,0.0007,0.0007,0.0081,0.0084,0.0086,0,0,0,0,0,0,0,0,0,0,0,0,0,-0.0034,-0.0048,-0.005,-0.0036,-0.0035,-0.0025,-0.0024,-0.0023,0.0007,0.0007,0.0007,0.0007,0.008,0.0083,0.0086,0.0106,0,0,0.0096,0.0097,0,0,0,0,0,0,0,0,-0.0034,-0.0033,-0.0038,-0.0037,-0.0036,-0.0017,0.0004,0.0021,0.0007,-0.0003,0.0007,0.0007,0.005,0.0056,0.0067,0.0109,0.0112,0.0096,0.0098,0.0099,0.01,0,0,0,0,0,0,0,-0.0035,-0.0034,-0.0034,-0.0038,-0.0037,-0.0023,-0.0021,0.0008,0.0028,-0.0002,-0.0001,-0.0007,0.0052,0.0064,0.0069,0.0113,0.0096,0.0098,0.01,0.0101,0.0144,0.0144,0,0,0,0,0,0,-0.0051,-0.0035,-0.0035,-0.0034,-0.0041,-0.0024,-0.0021,-0.0018,0.0027,0.0032,-0.0007,-0.0006,0.0059,0.0066,0.0072,0.009,0.0099,0.0102,0.0103,0.0145,0.0144,0.0144,0,0,0,0,0,0,-0.005,-0.005,-0.0036,-0.0039,-0.0037,-0.0025,-0.0022,-0.0018,-0.0002,0.0022,0.0029,0.0004,0.0059,0.0068,0.0062,0.0093,0.0103,0.0106,0.0146,0.0145,0.0144,0.013,0,0,0,0,0,0,-0.005,-0.005,-0.0047,-0.004,-0.0037,-0.0045,-0.0022,-0.0018,-0.0009,-0.0006,0.0034,0.0041,0.006,0.0057,0.0065,0.0098,0.0108,0.0147,0.0145,0.0144,0.0132,0.0129,0.0127,0,0,0,0,0,-0.005,-0.0053,-0.0047,-0.0047,-0.0035,-0.0046,-0.0044,-0.0031,-0.0008,-0.0013,-0.0004,0.004,0.0056,0.0057,0.0067,0.0102,0.0147,0.0146,0.0144,0.0133,0.0129,0.0127,0,0,0,0,0,0,-0.0048,-0.005,-0.0043,-0.0045,-0.0052,-0.0044,-0.0042,-0.0029,-0.002,-0.0018,0.0019,0.0024,0.0038,0.0057,0.0058,0.0107,0.0115,0.0116,0.0103,0.0101,0.0098,0.0078,0.0111,0,0,0,0,0,-0.0048,-0.0056,-0.0055,-0.0061,-0.0059,-0.0045,-0.0043,-0.0043,-0.0039,-0.0033,-0.0009,0.0016,0.0041,0.0056,0.0072,0.0093,0.0109,0.0123,0.0121,0.0119,0.0106,0.0159,0.0161,0.0139,0.0139,0.0139,0,0,-0.0051,-0.0056,-0.0058,-0.0063,-0.0057,-0.0072,-0.0043,-0.0052,-0.0069,-0.0026,-0.003,0.0006,0.0039,0.0056,0.0067,0.0077,0.0126,0.0117,0.0115,0.0103,0.0158,0.016,0.0162,0.0138,0.0138,0.0138,0,0,-0.0073,-0.006,-0.0074,-0.0085,-0.0096,-0.0092,-0.0096,-0.009,-0.0085,-0.0095,-0.006,-0.0024,0.0006,0.0041,0.0063,0.0056,0.0107,0.008,0.0064,0.0116,0.0119,0.0121,0.0118,0.0121,0.0086,0.0086,0.0086,0,-0.0074,-0.0094,-0.0082,-0.0106,-0.0123,-0.0103,-0.013,-0.0125,-0.0128,-0.0132,-0.0109,-0.0043,-0.0001,0.0036,0.004,0.0056,0.0072,0.0078,0.0115,0.0118,0.0121,0.0118,0.0121,0.0085,0.0085,0.0085,0.0085,0,-0.0113,-0.013,-0.014,-0.0164,-0.018,-0.0204,-0.0207,-0.0216,-0.0198,-0.019,-0.0158,-0.0096,-0.0053,-0.0013,0.0015,0.007,0.0068,0.0104,0.0127,0.0123,0.0119,0.0122,0.0084,0.0084,0.0084,0.0085,0,0,-0.0106,-0.0157,-0.016,-0.0194,-0.0217,-0.0243,-0.0268,-0.0288,-0.0309,-0.0264,-0.0262,-0.0176,-0.0116,-0.0088,-0.0014,0.0044,0.009,0.0087,0.009,0.0089,0.0169,0.0156,0.0158,0.0147,0.0148,0.0149,0.0148,0,-0.0136,-0.02,-0.0217,-0.0285,-0.0314,-0.0327,-0.0356,-0.0377,-0.0372,-0.0368,-0.0273,-0.0233,-0.015,-0.01,-0.0031,0.0066,0.0103,0.0084,0.0166,0.0167,0.0164,0.0164,0.0153,0.0151,0.0152,0.0152,0.0153,0,-0.0163,-0.0207,-0.0273,-0.0356,-0.0369,-0.0409,-0.0466,-0.0491,-0.0482,-0.0466,-0.0401,-0.033,-0.022,-0.0146,0.0005,-0.0006,0.0069,0.0138,0.0141,0.0136,0.0162,0.0162,0.016,0.0159,0.0159,0.0158,0.0158,0,-0.0169,-0.0251,-0.0311,-0.0338,-0.0414,-0.0456,-0.0489,-0.0517,-0.0549,-0.0508,-0.0505,-0.0383,-0.0307,-0.0175,-0.0021,0.0002,0.012,0.0168,0.0206,0.0204,0.0223,0.0221,0.0245,0.0245,0.0245,0.0245,0.0245,0,-0.0196,-0.0244,-0.0324,-0.0359,-0.045,-0.0483,-0.0569,-0.0583,-0.0599,-0.0619,-0.0532,-0.0502,-0.0304,-0.0209,-0.0065,0.0075,0.0088,0.0189,0.0213,0.0211,0.0207,0.0224,0.0221,0.0245,0.0245,0.0245,0.0245,0,-0.019,-0.0237,-0.032,-0.0415,-0.0456,-0.0515,-0.0629,-0.0677,-0.0676,-0.0694,-0.0666,-0.0587,-0.044,-0.0286,-0.009,0.0004,0.0148,0.0182,0.0117,0.0138,0.0198,0.0195,0.0227,0.0227,0.0227,0.0226,0.0226,0,-0.0193,-0.023,-0.0357,-0.0435,-0.0486,-0.0588,-0.0654,-0.0696,-0.073,-0.0735,-0.0719,-0.0626,-0.0541,-0.0315,-0.0135,0.0085,0.0128,0.0161,0.0231,0.0181,0.0201,0.0198,0.0195,0.0226,0.0226,0.0226,0.0226,0,-0.0195,-0.0236,-0.031,-0.0459,-0.0557,-0.066,-0.074,-0.0777,-0.0792,-0.0806,-0.0753,-0.0642,-0.0514,-0.0315,-0.0169,0.0005,0.0133,0.016,0.0163,0.0229,0.0181,0.0199,0.0197,0.0225,0.0225,0.0225,0.0225,0,-0.019,-0.0244,-0.0345,-0.0474,-0.0608,-0.0685,-0.0745,-0.0778,-0.0806,-0.0791,-0.0777,-0.064,-0.0569,-0.036,-0.0206,-0.0053,0.0008,0.0058,0.0067,0.007,0.0044,-0.0039,-0.0051,0,0,0,0,0,-0.0157,-0.0215,-0.0362,-0.0497,-0.0632,-0.0692,-0.0778,-0.0815,-0.0835,-0.0794,-0.0786,-0.0653,-0.0446,-0.0371,-0.0214,-0.0186,0.004,-0.0,0.0103,0.0221,0.0222,0.0221,0,0,0,0,0,0,-0.0147,-0.0244,-0.0333,-0.0476,-0.0578,-0.0691,-0.0746,-0.0765,-0.0745,-0.0756,-0.0644,-0.0613,-0.0405,-0.0514,-0.0204,-0.0164,-0.0081,0.0092,0.0095,0.0221,0.0221,0.0222,0.0221,0,0,0,0,0]}]]